Wind_Speed
14 14 16 16 17 17 17 19 22 20 19 18 18 21 22 21 21 21 22 22 22 21 21 21 21 22 23 24 25 26 27 28 28 27 26 26 27 27 26 25 26 26 25 24 26 26 26 26 25 25 25 25 26 26 26 27 27 26 26 27 28 29 30
15 16 18 20 22 22 23 24 23 20 18 18 18 21 22 22 21 22 23 23 23 22 21 21 22 22 23 24 25 25 26 27 27 27 27 26 26 26 26 27 26 26 26 25 26 27 27 27 26 26 27 27 27 27 27 28 28 27 27 27 27 29 30
18 18 20 22 24 25 26 26 23 20 18 17 17 20 22 23 22 22 23 23 23 23 22 22 22 22 23 23 24 24 25 25 25 26 26 26 26 26 26 26 27 27 27 27 27 27 27 28 28 28 28 28 28 28 28 28 28 28 28 27 27 27 29
20 20 21 23 24 26 26 25 23 20 18 16 17 19 21 22 22 22 22 23 23 23 22 22 21 21 21 22 22 22 23 23 23 24 24 25 25 26 26 26 26 27 27 27 27 27 27 28 28 29 28 28 28 28 28 28 28 28 28 27 26 26 27
22 21 22 23 24 25 24 21 19 17 15 15 17 19 19 19 20 20 21 22 23 23 22 21 20 20 20 20 21 21 21 22 22 23 24 24 25 25 26 26 26 26 26 27 27 27 27 27 27 28 27 27 26 26 27 27 27 27 27 26 26 25 25
24 22 22 22 21 21 19 16 14 13 13 15 16 17 18 18 18 19 20 21 22 22 21 20 19 19 19 19 19 19 19 20 21 22 22 23 23 24 24 24 24 25 25 25 25 25 25 25 25 25 25 24 24 24 24 25 25 25 25 25 25 25 24
25 24 23 22 20 19 16 12 11 11 12 14 15 16 17 16 17 18 19 20 20 20 20 19 18 17 17 16 16 16 17 18 18 19 20 21 21 21 22 22 22 22 22 22 22 22 22 22 22 21 21 21 21 21 22 22 23 23 23 23 23 23 23
20 20 20 21 20 19 17 13 11 12 12 13 15 16 16 16 18 18 19 19 19 19 19 18 16 15 14 14 14 14 14 15 16 17 18 18 18 19 18 18 19 19 19 19 19 19 19 19 19 19 18 18 18 19 19 20 20 20 20 20 20 20 20
19 18 19 21 18 16 16 15 13 13 13 13 15 16 16 16 17 18 18 18 18 18 18 17 16 15 14 13 13 13 13 13 14 14 15 15 15 15 15 15 15 15 16 16 16 16 16 17 17 17 16 16 16 16 17 17 18 17 17 17 17 17 17
19 18 18 18 15 15 19 20 17 15 14 14 15 16 16 15 16 17 17 17 17 17 17 16 16 15 15 14 14 13 12 12 12 13 13 13 13 13 12 12 13 13 13 14 14 14 15 15 15 15 15 15 15 15 15 15 15 15 14 14 14 14 14
16 14 15 16 14 17 23 24 21 18 15 15 16 16 15 15 14 15 16 17 17 17 16 15 15 15 14 14 14 14 13 13 12 12 12 12 12 12 11 11 11 12 12 13 13 14 14 14 14 14 14 15 14 14 14 14 14 14 13 13 12 12 13
15 13 13 15 15 18 25 27 23 20 16 15 16 16 15 15 15 15 16 17 18 18 18 17 16 16 15 15 15 14 14 14 14 14 13 13 13 12 12 12 12 12 13 13 14 14 14 14 14 14 14 14 14 14 13 13 13 13 13 13 12 12 13
14 14 14 15 15 18 23 22 18 15 14 15 16 16 16 16 17 18 18 18 19 19 19 18 18 17 16 15 15 15 15 15 15 15 14 14 13 12 12 12 12 13 14 15 15 15 16 15 16 16 16 16 16 15 15 14 14 14 14 13 13 13 13
11 13 14 15 16 15 16 15 13 12 12 13 15 16 17 18 18 20 20 20 20 19 19 19 18 17 16 15 15 14 14 14 14 14 14 13 13 13 13 13 14 15 15 16 16 17 17 17 17 17 17 17 17 17 17 16 16 15 15 15 15 14 14
10 11 13 15 17 16 15 16 16 14 14 16 17 19 20 20 20 20 21 21 21 20 20 19 19 18 17 16 15 15 14 14 14 14 14 14 13 14 14 15 17 17 18 18 18 18 18 18 19 19 19 18 18 18 17 17 17 17 16 16 16 16 16
11 12 12 13 14 14 15 17 17 17 19 20 21 22 22 21 22 21 20 20 20 20 20 20 20 20 19 18 17 17 16 16 16 16 15 15 15 15 16 17 18 19 19 19 19 19 19 19 20 20 20 20 19 19 19 19 18 18 18 18 17 18 18
13 13 13 13 12 12 13 15 17 19 23 24 23 23 23 23 23 23 22 21 20 19 18 19 19 19 19 19 18 18 18 18 18 18 18 17 18 18 18 18 18 19 20 21 21 20 20 20 20 20 21 21 21 21 22 22 21 21 21 21 21 21 20
15 16 16 15 14 13 13 15 17 21 25 26 25 23 24 25 25 25 24 24 22 19 18 18 18 18 18 19 19 19 19 19 20 20 20 20 20 20 20 20 21 22 22 22 22 22 21 21 21 21 21 22 22 23 23 24 24 25 25 25 25 24 24
17 18 18 17 16 15 16 18 20 22 24 26 25 24 24 25 26 26 27 25 22 20 18 17 18 18 19 19 19 20 20 20 21 21 22 22 21 21 22 22 23 24 25 25 24 24 23 23 23 23 23 22 22 23 24 25 26 27 27 28 28 27 26
20 19 18 17 16 16 18 19 21 23 24 25 28 29 27 26 27 26 25 23 21 20 19 18 18 19 20 20 20 21 22 22 23 24 24 24 23 23 24 25 25 26 26 27 27 26 25 25 25 25 24 24 24 24 25 27 28 29 29 30 30 30 29
24 21 20 20 20 19 19 20 20 22 23 24 28 31 30 27 27 26 23 20 20 22 22 21 21 21 21 22 22 22 22 23 25 27 27 26 26 25 26 28 29 29 27 27 29 29 28 27 27 27 27 27 28 28 28 29 30 30 31 32 33 33 33
29 28 28 27 26 24 22 22 22 22 23 22 24 28 30 29 29 28 24 21 22 25 24 23 23 24 24 25 25 24 23 23 24 27 28 28 28 28 28 30 33 32 30 28 29 30 31 31 31 31 32 33 35 35 33 32 31 31 32 33 34 35 37
32 33 32 31 31 29 26 25 24 24 25 24 23 25 28 30 31 29 26 24 24 25 26 27 28 29 28 27 27 27 27 27 28 29 30 30 30 30 31 32 34 34 33 32 32 32 33 34 34 34 35 36 38 38 38 36 36 36 36 37 38 38 39
35 34 34 34 33 33 31 29 28 27 27 27 28 28 28 29 30 30 27 26 27 28 29 30 31 31 29 29 30 31 32 33 34 34 35 34 34 34 35 35 35 35 36 36 36 37 38 39 39 39 39 39 40 41 42 43 43 43 42 42 43 43 43
38 37 36 35 35 36 35 34 33 32 31 30 31 33 32 31 33 34 32 31 30 30 30 29 30 31 31 31 32 33 33 33 33 33 34 35 36 37 38 38 39 40 40 41 41 42 43 44 45 45 45 44 44 45 46 48 48 48 48 48 49 49 48
41 40 39 38 37 37 37 36 35 34 35 34 33 34 34 34 35 36 34 33 33 33 31 31 31 32 32 31 30 30 31 32 33 34 35 35 36 37 38 39 41 42 43 44 46 47 48 49 50 50 50 50 50 49 49 50 50 51 52 52 52 52 52
43 42 41 40 39 38 37 37 36 35 36 36 36 35 36 36 36 35 34 34 35 35 35 36 36 34 32 31 29 30 32 34 36 37 37 37 37 37 38 40 42 43 44 45 46 48 49 50 51 52 53 53 53 53 52 51 51 51 52 53 53 53 53
45 44 43 41 40 39 38 38 38 38 38 37 38 38 37 37 36 36 36 35 36 36 37 36 36 34 32 31 31 32 35 36 37 37 37 38 38 38 39 40 41 43 45 46 47 48 49 50 50 51 52 53 53 53 53 52 52 52 52 52 53 53 54
46 45 44 43 42 41 40 40 40 40 40 40 40 40 40 39 38 37 37 37 37 37 37 36 34 33 33 33 34 36 36 37 37 37 38 39 39 40 40 40 41 43 44 45 47 48 48 49 50 50 51 51 51 51 52 52 52 52 53 53 54 54 55
45 44 44 43 43 43 42 43 43 43 43 43 43 42 40 39 38 38 38 38 39 39 38 37 36 36 35 36 36 37 37 38 39 39 40 41 41 41 41 41 42 43 44 45 46 47 48 48 49 50 50 50 51 51 52 52 53 53 54 54 55 55 56
42 42 42 42 42 42 42 42 42 42 43 43 43 42 41 39 39 39 39 39 40 40 39 39 39 40 40 39 39 39 40 41 41 41 41 42 42 42 42 42 43 43 44 45 46 47 48 48 49 50 50 50 51 51 51 52 52 53 53 53 54 55 56
41 42 42 42 42 42 42 42 41 41 42 42 42 42 41 40 39 38 38 39 40 40 41 41 42 43 43 43 43 43 44 44 43 43 43 43 43 43 43 43 43 43 44 44 44 45 46 46 47 47 48 48 49 49 49 50 50 51 52 52 53 54 55
39 40 41 42 43 43 43 42 42 42 43 43 42 42 41 41 40 40 39 39 39 40 41 41 42 43 44 45 45 46 46 46 46 46 45 45 45 44 44 44 43 43 43 43 44 44 43 44 44 45 45 46 46 47 48 49 49 50 51 51 52 53 54
45 43 42 41 41 41 41 41 41 42 43 43 43 43 43 43 42 42 41 40 39 40 40 40 41 42 44 45 47 48 48 48 48 47 47 46 46 45 44 44 43 43 43 43 43 43 43 43 44 44 44 45 46 47 47 48 48 49 49 50 51 51 52
53 50 47 45 43 42 42 41 40 40 41 42 43 43 45 45 44 43 42 42 41 41 41 42 43 44 46 47 49 50 51 51 50 49 48 47 46 45 44 44 43 43 42 42 42 42 42 43 43 44 44 45 45 46 47 47 47 47 48 49 50 51 52
55 53 51 49 48 47 46 44 42 39 40 43 45 46 47 48 46 45 45 45 44 45 45 46 47 48 50 52 53 54 54 53 51 50 48 47 47 46 45 45 44 43 42 42 42 42 42 43 43 44 44 44 44 45 45 45 46 46 47 49 49 50 51
57 57 56 55 54 53 51 48 47 45 44 45 46 47 49 50 49 48 48 48 49 50 51 52 53 54 55 56 56 55 54 52 50 48 47 46 44 43 43 43 42 41 41 42 42 42 42 43 43 43 43 43 43 43 44 45 46 46 47 48 49 49 50
Wind_Direction
280 265 262 266 269 266 263 276 293 295 285 278 277 276 273 268 262 256 252 249 247 245 244 244 246 247 250 251 252 253 255 257 258 259 259 260 261 260 258 257 253 252 256 259 259 261 261 260 260 261 262 263 265 266 267 268 268 266 265 264 264 263 262
276 266 264 268 272 272 272 280 289 291 285 278 274 272 269 265 261 255 251 247 245 245 244 245 245 247 249 250 251 250 251 253 255 257 258 260 261 260 258 257 255 253 257 261 262 263 264 264 265 265 266 267 268 269 270 270 271 270 269 266 264 263 262
274 270 269 271 274 275 277 281 285 287 286 282 277 271 264 260 256 253 250 247 245 244 243 244 244 246 247 249 250 250 251 252 253 256 258 260 261 261 259 259 258 259 262 265 266 267 268 269 270 269 269 269 270 271 270 270 270 270 270 269 266 264 262
266 268 270 272 273 273 273 275 278 282 283 282 281 273 262 256 252 250 248 245 243 242 241 242 243 244 246 249 251 252 253 255 255 256 258 260 261 262 263 263 262 263 265 266 267 268 269 269 270 271 270 270 271 271 270 270 270 270 270 270 269 267 264
263 265 270 274 275 275 273 271 272 276 279 281 283 276 265 257 252 249 246 243 241 239 238 239 239 242 245 247 250 252 254 256 257 257 258 259 260 262 263 264 264 264 265 266 267 267 268 269 270 271 272 272 272 272 271 271 270 270 270 270 270 269 266
264 264 271 278 281 283 280 271 268 276 279 281 282 276 268 261 256 252 246 242 240 238 236 236 237 239 241 244 247 250 253 255 257 258 259 259 260 261 262 263 265 266 267 268 268 269 270 270 271 272 273 273 273 273 273 272 271 271 271 271 270 269 267
262 260 265 273 278 283 282 270 272 282 279 278 279 271 264 260 256 251 246 241 238 236 234 233 233 234 237 240 244 249 253 257 259 260 261 261 262 263 264 266 268 269 270 271 272 272 273 273 273 274 274 275 275 276 275 275 274 274 274 273 272 270 268
261 257 259 267 271 275 278 275 281 282 270 267 268 261 257 255 252 247 241 237 234 231 230 229 229 230 233 237 242 247 252 256 259 262 263 264 265 267 268 270 272 273 275 276 276 277 277 277 277 277 278 279 279 280 279 278 277 276 275 274 273 271 269
264 262 264 272 274 272 272 272 274 269 256 254 255 252 250 249 248 244 238 233 232 230 229 227 226 227 229 232 236 241 247 251 254 257 260 263 266 268 270 272 274 276 278 279 280 281 281 281 283 284 285 285 285 285 285 283 281 279 278 276 275 273 271
270 268 270 275 276 267 262 261 262 256 245 245 249 248 248 248 247 244 238 232 229 229 230 230 230 231 231 233 234 237 240 242 247 250 253 258 261 265 269 272 275 278 280 282 284 286 287 288 289 290 291 291 291 290 289 288 287 286 284 280 278 277 276
268 267 268 264 266 266 261 257 257 251 239 241 247 246 247 248 248 248 245 241 235 230 228 229 231 234 236 238 238 238 239 240 243 246 249 253 257 261 265 271 275 278 282 285 288 290 291 292 294 295 295 294 294 293 292 291 290 290 290 287 286 285 284
258 255 258 252 257 267 261 253 250 244 234 237 244 245 247 248 250 252 253 252 247 240 234 229 228 230 232 235 237 239 241 242 244 246 249 252 255 260 265 270 274 277 280 283 285 287 289 290 291 291 291 290 289 288 287 286 286 285 286 286 286 286 286
260 252 262 262 265 271 263 250 243 242 239 241 242 241 245 247 249 251 250 249 247 243 238 232 228 227 228 232 236 239 241 243 246 248 249 252 254 258 264 271 276 280 283 284 285 285 286 287 287 286 286 285 283 282 280 279 280 280 279 279 280 280 280
274 260 267 271 272 276 271 261 259 261 258 254 250 246 246 249 252 253 249 245 241 238 236 232 230 230 231 234 238 241 244 246 248 249 250 253 255 260 266 271 276 279 281 283 284 285 285 286 287 286 287 286 285 284 282 280 278 277 277 277 276 276 277
282 276 277 277 277 279 277 273 271 268 263 262 261 258 255 256 260 260 256 251 247 243 240 237 235 234 233 235 235 236 238 241 245 249 253 255 260 267 273 276 277 276 274 274 274 276 278 280 281 282 284 285 285 284 284 283 281 279 279 279 278 278 278
280 284 286 286 283 277 272 271 271 269 268 268 264 261 260 263 266 264 260 257 255 252 251 248 245 242 239 236 234 233 235 239 243 247 250 253 258 266 274 278 279 279 277 274 272 271 272 274 277 279 281 282 283 284 283 283 282 282 280 278 277 276 274
271 272 276 283 286 280 272 271 272 273 273 273 271 267 265 265 265 262 256 253 253 254 256 257 255 253 250 245 240 237 238 241 243 245 248 252 257 263 268 271 273 276 277 276 274 272 271 272 273 275 277 278 279 280 281 282 282 281 280 279 277 274 272
266 263 267 274 278 278 276 274 272 270 271 273 273 272 271 269 266 262 256 250 247 248 251 254 256 256 256 253 249 244 243 243 245 246 250 254 259 263 266 269 270 271 271 271 271 270 270 270 269 269 270 272 274 276 277 279 280 280 280 280 280 279 277
272 267 266 271 276 278 276 274 271 269 271 274 272 267 266 266 262 260 259 254 249 248 248 248 251 252 253 254 255 254 252 251 251 252 254 257 260 264 267 270 272 272 268 265 263 265 266 266 266 266 266 268 271 274 277 279 280 280 280 279 279 279 278
284 275 268 270 278 282 280 278 274 270 270 275 275 267 260 258 254 250 250 252 250 247 245 245 250 252 253 256 260 261 260 258 257 256 256 257 260 265 270 273 274 275 273 265 258 258 260 261 262 262 263 265 268 272 276 279 280 279 279 279 278 277 275
285 281 276 275 278 281 282 281 277 271 269 272 276 270 260 252 247 241 239 243 246 244 242 246 252 256 257 259 260 261 262 264 262 259 258 258 259 264 270 273 274 275 276 269 260 256 257 259 259 258 259 261 264 268 274 278 278 278 278 277 276 274 272
279 279 278 278 279 279 278 276 271 268 267 270 276 275 264 251 243 241 240 239 242 243 245 250 254 256 259 261 260 259 261 267 267 263 260 260 261 262 264 268 270 272 274 272 266 261 259 260 261 260 260 261 264 267 271 273 275 276 277 277 276 274 272
276 275 276 276 277 276 274 272 268 265 263 262 267 274 271 257 246 241 239 238 242 251 257 260 259 258 259 261 259 255 258 268 273 270 266 265 265 264 263 264 267 269 271 271 270 267 265 265 266 266 266 266 267 269 270 271 275 277 278 278 277 277 275
275 274 273 272 272 272 271 270 268 265 262 260 259 263 267 262 250 245 248 256 261 264 265 261 256 255 261 264 261 259 264 273 277 274 271 270 270 269 268 268 269 270 270 270 270 270 269 269 269 270 271 271 270 271 272 274 276 278 278 278 278 277 277
272 271 270 270 269 269 270 269 266 264 263 261 259 260 263 263 258 256 262 269 268 263 259 254 252 256 265 267 264 265 270 276 276 274 272 273 273 272 272 272 272 272 272 271 271 270 271 271 272 272 273 272 271 271 271 273 275 277 277 277 277 277 277
267 267 268 268 268 267 268 267 266 264 263 262 262 261 261 263 264 263 263 262 261 257 256 257 259 263 267 267 265 266 270 273 275 276 276 277 278 278 277 276 275 274 273 272 272 272 272 272 273 274 274 274 273 272 272 272 273 273 274 274 274 275 274
263 263 264 264 264 264 264 264 264 264 263 262 262 262 261 261 263 264 263 261 260 260 261 262 264 265 265 265 265 266 268 272 274 276 278 279 281 282 281 279 277 276 275 274 274 273 273 273 273 274 274 275 275 275 275 274 273 272 272 272 272 271 271
264 264 264 263 262 260 259 259 261 262 262 261 260 261 262 262 261 262 264 263 263 263 264 263 263 263 262 262 264 266 270 274 276 277 278 280 282 283 283 282 279 277 275 275 274 274 274 273 273 273 274 274 275 276 276 276 276 275 275 274 273 272 271
266 266 266 266 264 261 259 259 259 259 260 260 260 261 262 262 261 261 262 263 263 264 265 263 261 260 259 261 264 268 273 277 279 280 281 282 284 284 285 283 281 279 276 275 274 274 274 274 275 275 275 275 276 277 277 278 278 278 278 278 277 276 275
266 266 266 267 266 263 261 260 260 260 260 261 261 262 261 261 261 260 261 261 261 262 263 262 260 259 260 262 266 270 276 280 282 283 284 284 285 285 284 283 281 279 277 276 275 275 275 276 276 276 277 278 278 279 279 280 280 280 279 279 279 278 278
264 265 265 265 265 264 262 261 260 260 261 262 262 263 263 262 261 260 260 260 259 260 260 259 258 258 261 264 268 273 279 283 285 285 285 285 285 284 283 282 280 277 275 274 273 274 274 275 275 276 277 278 278 279 279 279 279 280 280 279 279 279 278
264 265 265 263 263 263 263 262 261 260 261 263 264 264 264 263 262 261 260 259 258 258 258 258 258 259 262 265 270 276 281 285 287 287 287 286 285 285 284 282 280 278 275 274 273 272 273 273 274 275 276 276 277 278 278 279 280 281 281 281 281 281 280
262 263 264 263 263 263 263 263 262 262 263 264 265 264 264 264 263 262 261 260 260 260 260 261 262 263 265 268 272 277 282 286 288 289 288 287 287 286 284 283 281 279 278 277 276 276 275 275 276 276 277 277 278 279 280 281 282 283 283 283 283 282 281
256 257 259 259 260 262 263 264 264 264 265 266 266 265 265 265 265 264 263 262 262 263 263 264 266 267 269 272 276 280 284 287 289 289 288 287 286 285 284 283 282 281 280 279 279 278 278 278 278 279 279 280 280 282 282 283 284 284 284 284 283 282 282
254 253 254 254 253 254 256 259 261 264 266 267 265 263 263 264 265 265 265 264 264 264 265 267 268 270 273 276 279 282 285 287 288 287 287 286 285 285 284 284 284 284 283 281 280 280 280 279 279 280 281 282 283 283 284 285 285 285 284 283 282 281 281
253 251 251 251 251 251 252 254 258 260 261 261 258 256 258 261 264 265 265 264 264 265 266 268 270 272 275 279 281 283 285 286 286 286 286 286 285 285 284 284 284 284 283 282 281 280 279 279 280 281 282 284 284 285 285 285 285 283 282 282 281 281 281
253 252 251 251 252 253 255 258 260 258 254 254 253 253 255 259 262 264 264 264 265 266 267 269 271 274 278 280 282 283 284 285 285 286 286 286 286 285 284 283 282 282 281 280 280 279 279 280 281 283 284 285 285 285 285 284 283 282 282 282 282 283 283
Height
5770 5770 5770 5770 5770 5770 5770 5769 5769 5768 5768 5768 5769 5769 5769 5769 5770 5770 5770 5770 5771 5771 5772 5772 5773 5773 5774 5774 5774 5774 5774 5774 5775 5776 5776 5776 5776 5777 5777 5777 5777 5777 5777 5777 5777 5777 5778 5778 5778 5779 5779 5780 5780 5780 5780 5780 5780 5780 5781 5781 5780 5780 5780
5768 5768 5768 5768 5768 5767 5767 5767 5767 5766 5766 5766 5766 5767 5767 5767 5767 5767 5768 5768 5769 5769 5770 5770 5771 5771 5771 5771 5772 5772 5772 5773 5773 5773 5774 5775 5775 5775 5776 5775 5775 5775 5775 5775 5775 5775 5775 5775 5775 5776 5776 5777 5777 5777 5777 5777 5777 5777 5777 5778 5778 5777 5777
5766 5766 5766 5766 5765 5765 5765 5765 5765 5764 5764 5763 5764 5765 5765 5765 5765 5765 5765 5766 5766 5767 5767 5768 5768 5768 5769 5769 5769 5770 5770 5771 5771 5771 5771 5772 5773 5773 5773 5774 5774 5773 5773 5773 5773 5772 5772 5772 5772 5772 5773 5774 5774 5774 5774 5774 5774 5774 5774 5774 5775 5774 5774
5764 5764 5764 5764 5763 5763 5763 5763 5763 5762 5762 5761 5761 5762 5763 5763 5763 5763 5763 5763 5764 5764 5764 5765 5765 5766 5766 5766 5767 5767 5767 5768 5768 5768 5769 5769 5769 5770 5770 5771 5771 5771 5771 5770 5770 5770 5769 5769 5769 5769 5770 5771 5771 5771 5770 5770 5771 5771 5771 5771 5771 5771 5771
5760 5761 5761 5761 5760 5760 5760 5761 5760 5760 5759 5759 5759 5759 5760 5760 5760 5761 5761 5761 5761 5762 5762 5762 5762 5763 5763 5764 5764 5764 5765 5765 5765 5766 5766 5766 5766 5767 5767 5768 5768 5768 5768 5768 5767 5767 5767 5767 5767 5767 5767 5768 5768 5768 5767 5767 5767 5767 5767 5768 5768 5768 5769
5757 5758 5758 5758 5757 5756 5757 5758 5758 5757 5757 5756 5756 5757 5757 5757 5758 5758 5758 5759 5759 5760 5760 5760 5760 5760 5761 5761 5762 5762 5762 5763 5763 5763 5764 5764 5764 5764 5765 5765 5765 5766 5765 5765 5765 5765 5765 5765 5765 5765 5765 5765 5765 5765 5765 5764 5764 5764 5764 5764 5765 5765 5765
5753 5754 5755 5754 5754 5754 5754 5754 5755 5755 5755 5755 5755 5755 5755 5755 5755 5756 5756 5756 5757 5757 5758 5758 5758 5758 5759 5759 5759 5760 5760 5761 5761 5761 5762 5762 5762 5762 5762 5763 5763 5763 5763 5763 5763 5763 5763 5763 5763 5763 5763 5762 5762 5762 5762 5762 5762 5762 5761 5762 5762 5762 5762
5750 5750 5751 5751 5751 5751 5751 5751 5752 5752 5753 5753 5753 5754 5754 5754 5754 5754 5754 5754 5755 5755 5756 5756 5756 5756 5756 5756 5757 5757 5758 5758 5759 5759 5759 5760 5760 5760 5760 5761 5761 5761 5761 5761 5761 5761 5761 5761 5761 5761 5761 5760 5760 5760 5760 5759 5759 5759 5759 5759 5759 5759 5759
5749 5749 5749 5749 5749 5749 5748 5749 5749 5750 5750 5751 5752 5752 5752 5753 5753 5753 5753 5753 5753 5753 5753 5754 5754 5754 5754 5754 5754 5755 5755 5756 5756 5757 5757 5758 5758 5758 5759 5759 5759 5759 5759 5759 5759 5759 5759 5759 5759 5759 5759 5759 5758 5758 5758 5757 5757 5757 5757 5757 5757 5757 5757
5747 5747 5748 5747 5747 5747 5746 5746 5747 5748 5748 5749 5749 5750 5750 5751 5751 5751 5751 5751 5751 5751 5751 5752 5752 5752 5752 5753 5753 5753 5753 5754 5755 5755 5756 5756 5756 5757 5757 5757 5758 5758 5758 5758 5758 5758 5758 5757 5757 5757 5757 5757 5757 5757 5757 5757 5756 5756 5756 5756 5756 5756 5756
5744 5745 5745 5745 5745 5744 5743 5743 5745 5746 5746 5747 5747 5748 5748 5749 5749 5749 5749 5749 5749 5749 5749 5750 5750 5750 5751 5751 5752 5752 5752 5753 5753 5754 5754 5755 5755 5755 5756 5756 5756 5756 5756 5756 5756 5756 5756 5756 5756 5756 5756 5756 5756 5756 5756 5756 5756 5755 5755 5755 5755 5755 5755
5742 5742 5741 5741 5742 5742 5741 5741 5742 5743 5744 5745 5745 5746 5746 5747 5747 5747 5748 5748 5748 5747 5747 5747 5748 5748 5749 5749 5750 5750 5751 5751 5751 5752 5752 5753 5753 5754 5754 5754 5754 5754 5755 5755 5755 5755 5755 5755 5755 5755 5755 5755 5755 5755 5755 5755 5754 5754 5754 5754 5754 5754 5754
5739 5739 5739 5739 5739 5739 5738 5739 5740 5741 5742 5743 5743 5744 5745 5745 5745 5746 5746 5746 5746 5746 5745 5745 5745 5746 5746 5747 5747 5748 5749 5749 5750 5750 5750 5751 5751 5751 5752 5752 5752 5752 5753 5753 5753 5753 5753 5753 5753 5753 5753 5753 5753 5753 5753 5753 5753 5753 5753 5753 5753 5753 5753
5736 5737 5737 5737 5737 5737 5737 5738 5739 5739 5740 5741 5742 5742 5742 5743 5743 5743 5743 5743 5743 5743 5743 5743 5743 5743 5744 5745 5745 5746 5747 5747 5748 5748 5749 5749 5749 5750 5750 5750 5750 5750 5751 5751 5751 5751 5751 5751 5751 5751 5751 5751 5751 5752 5752 5752 5751 5751 5751 5751 5751 5751 5751
5734 5735 5735 5735 5735 5735 5735 5736 5736 5737 5738 5738 5739 5740 5740 5740 5741 5741 5741 5741 5741 5741 5741 5741 5741 5741 5742 5742 5743 5744 5744 5745 5746 5746 5747 5747 5748 5748 5748 5748 5748 5748 5748 5749 5749 5749 5749 5749 5749 5749 5749 5749 5749 5749 5750 5750 5750 5750 5750 5750 5749 5749 5749
5732 5733 5734 5734 5733 5732 5732 5733 5733 5733 5734 5735 5736 5736 5737 5738 5738 5738 5739 5739 5739 5739 5739 5739 5739 5739 5739 5740 5740 5741 5741 5742 5743 5744 5744 5745 5745 5746 5746 5746 5746 5746 5746 5746 5746 5747 5747 5747 5747 5747 5747 5747 5747 5747 5747 5748 5748 5748 5748 5748 5748 5748 5748
5731 5731 5731 5731 5730 5730 5730 5731 5731 5730 5730 5731 5732 5733 5734 5734 5734 5734 5735 5735 5736 5737 5737 5737 5738 5738 5738 5738 5738 5738 5739 5739 5740 5741 5742 5742 5743 5743 5743 5744 5744 5744 5744 5744 5744 5744 5744 5744 5744 5745 5745 5745 5745 5745 5745 5745 5745 5746 5746 5746 5746 5745 5745
5729 5729 5729 5729 5728 5728 5729 5729 5729 5729 5728 5728 5729 5729 5730 5731 5731 5731 5731 5731 5732 5733 5734 5735 5735 5736 5737 5737 5737 5736 5737 5737 5737 5738 5739 5739 5740 5740 5740 5741 5741 5741 5741 5741 5741 5741 5741 5741 5741 5741 5742 5742 5742 5742 5742 5742 5742 5742 5742 5742 5742 5742 5742
5726 5726 5726 5726 5726 5726 5727 5727 5726 5726 5726 5726 5726 5726 5727 5727 5728 5728 5728 5728 5729 5729 5730 5731 5732 5733 5734 5734 5735 5735 5735 5735 5735 5735 5736 5736 5737 5737 5737 5738 5738 5737 5738 5738 5738 5738 5738 5738 5738 5738 5738 5738 5739 5739 5739 5739 5739 5739 5739 5739 5739 5739 5739
5723 5723 5724 5724 5724 5724 5724 5724 5723 5723 5723 5723 5723 5723 5724 5723 5724 5725 5725 5725 5726 5726 5727 5728 5728 5730 5731 5731 5731 5732 5732 5732 5732 5732 5732 5733 5734 5734 5734 5735 5734 5734 5734 5734 5734 5735 5735 5735 5735 5735 5735 5735 5735 5736 5736 5736 5736 5735 5735 5735 5735 5735 5735
5719 5720 5721 5721 5721 5721 5721 5721 5720 5720 5720 5720 5720 5719 5720 5720 5720 5721 5722 5723 5723 5724 5724 5725 5726 5726 5727 5728 5728 5728 5729 5729 5729 5729 5729 5729 5730 5731 5731 5731 5730 5730 5730 5730 5730 5731 5731 5731 5732 5732 5732 5732 5732 5732 5732 5732 5732 5732 5731 5731 5731 5730 5730
5715 5716 5717 5717 5717 5718 5718 5718 5718 5717 5716 5717 5717 5716 5716 5716 5717 5718 5719 5720 5720 5721 5721 5722 5722 5723 5723 5724 5724 5724 5724 5725 5725 5725 5725 5725 5726 5727 5727 5727 5726 5726 5726 5726 5727 5727 5727 5727 5728 5728 5728 5728 5727 5727 5728 5728 5728 5727 5727 5727 5726 5726 5725
5710 5711 5711 5712 5713 5713 5714 5714 5714 5714 5713 5713 5713 5713 5713 5713 5714 5715 5716 5716 5716 5717 5718 5718 5718 5719 5719 5720 5720 5721 5720 5721 5721 5721 5722 5722 5722 5722 5722 5722 5721 5722 5722 5722 5722 5723 5723 5723 5723 5723 5723 5723 5723 5723 5723 5722 5722 5722 5722 5722 5721 5721 5720
5704 5704 5705 5706 5707 5707 5708 5709 5709 5709 5710 5710 5710 5709 5709 5710 5711 5712 5712 5712 5713 5712 5713 5713 5714 5714 5715 5716 5716 5716 5716 5716 5716 5717 5717 5717 5717 5717 5717 5717 5717 5717 5717 5717 5718 5718 5718 5718 5718 5718 5718 5718 5718 5718 5717 5717 5716 5716 5716 5715 5715 5715 5714
5698 5698 5699 5700 5701 5702 5702 5703 5704 5704 5705 5705 5705 5704 5704 5706 5707 5707 5708 5710 5709 5708 5707 5708 5709 5710 5710 5711 5712 5712 5711 5711 5712 5712 5712 5712 5712 5712 5713 5713 5712 5712 5712 5712 5712 5712 5712 5712 5712 5712 5712 5712 5712 5712 5712 5711 5710 5710 5709 5708 5708 5708 5708
5692 5692 5693 5694 5695 5695 5696 5696 5697 5698 5699 5700 5700 5699 5700 5700 5701 5701 5703 5704 5704 5703 5704 5704 5705 5706 5706 5706 5707 5707 5707 5707 5707 5707 5707 5708 5707 5707 5707 5707 5707 5706 5706 5706 5706 5706 5706 5705 5705 5705 5705 5705 5705 5705 5705 5705 5704 5703 5702 5701 5701 5701 5700
5685 5686 5687 5688 5689 5689 5690 5690 5691 5692 5693 5694 5694 5694 5694 5696 5696 5696 5696 5697 5697 5698 5699 5699 5700 5700 5701 5701 5702 5702 5703 5703 5703 5703 5702 5702 5702 5702 5702 5701 5701 5700 5700 5700 5700 5700 5699 5699 5699 5698 5698 5698 5697 5697 5697 5697 5696 5696 5695 5694 5694 5693 5693
5679 5679 5680 5681 5682 5683 5684 5684 5685 5686 5687 5688 5688 5689 5689 5690 5691 5691 5690 5691 5691 5692 5693 5694 5694 5695 5696 5696 5697 5697 5698 5698 5698 5698 5697 5697 5697 5697 5697 5696 5696 5695 5695 5694 5694 5693 5693 5693 5692 5692 5691 5691 5690 5690 5689 5689 5688 5688 5687 5686 5686 5685 5684
5672 5672 5673 5674 5675 5676 5677 5677 5678 5679 5680 5681 5682 5683 5683 5684 5684 5685 5685 5685 5686 5687 5687 5688 5689 5690 5690 5691 5692 5692 5693 5693 5693 5692 5692 5692 5692 5691 5691 5691 5690 5690 5689 5688 5688 5687 5687 5686 5685 5685 5684 5684 5683 5683 5682 5681 5680 5680 5679 5678 5677 5676 5676
5665 5665 5666 5667 5667 5669 5670 5670 5671 5672 5673 5674 5675 5676 5677 5677 5678 5679 5679 5680 5681 5681 5681 5682 5683 5684 5685 5685 5686 5687 5687 5687 5687 5687 5686 5686 5686 5686 5686 5685 5685 5684 5683 5682 5682 5681 5680 5680 5679 5678 5677 5677 5676 5676 5675 5674 5673 5672 5671 5670 5669 5668 5667
5658 5659 5659 5660 5660 5661 5662 5663 5664 5664 5665 5666 5667 5668 5670 5671 5671 5672 5673 5674 5675 5675 5676 5676 5677 5678 5679 5679 5680 5681 5681 5681 5680 5680 5680 5680 5680 5680 5680 5679 5679 5678 5677 5677 5676 5675 5674 5673 5673 5672 5671 5670 5669 5669 5668 5667 5666 5665 5664 5663 5661 5660 5659
5652 5652 5652 5653 5653 5654 5655 5656 5657 5658 5659 5659 5660 5661 5662 5663 5664 5665 5666 5667 5668 5669 5670 5670 5671 5672 5672 5673 5673 5674 5674 5674 5674 5674 5674 5674 5674 5674 5674 5673 5672 5672 5671 5670 5670 5669 5668 5667 5666 5665 5664 5664 5663 5662 5661 5660 5659 5657 5656 5655 5654 5652 5651
5645 5645 5646 5646 5646 5647 5648 5649 5650 5651 5652 5652 5653 5654 5655 5656 5657 5658 5659 5660 5660 5662 5662 5663 5664 5665 5665 5666 5666 5667 5667 5667 5667 5667 5667 5667 5667 5667 5667 5666 5665 5664 5664 5663 5662 5662 5661 5660 5659 5658 5658 5657 5655 5655 5654 5653 5652 5650 5649 5647 5646 5644 5642
5639 5639 5640 5640 5640 5641 5642 5643 5644 5645 5645 5646 5646 5647 5648 5648 5649 5650 5651 5652 5653 5654 5655 5656 5657 5658 5658 5659 5659 5659 5660 5660 5660 5660 5660 5660 5660 5659 5659 5658 5658 5657 5657 5656 5655 5654 5654 5653 5652 5651 5650 5649 5648 5647 5646 5645 5644 5643 5642 5640 5638 5636 5634
5632 5633 5633 5634 5634 5635 5636 5637 5638 5638 5639 5639 5640 5640 5641 5642 5642 5643 5644 5645 5646 5647 5648 5649 5650 5650 5651 5651 5652 5652 5653 5653 5654 5654 5653 5653 5652 5652 5651 5651 5650 5650 5649 5649 5648 5647 5647 5646 5645 5644 5643 5642 5641 5640 5639 5638 5637 5636 5634 5632 5631 5629 5626
5624 5626 5626 5627 5628 5628 5629 5630 5632 5633 5633 5634 5634 5634 5634 5635 5636 5637 5637 5638 5639 5640 5641 5642 5643 5643 5644 5644 5645 5645 5646 5646 5647 5646 5646 5646 5645 5645 5644 5644 5644 5643 5642 5642 5641 5640 5640 5639 5638 5637 5636 5635 5634 5633 5632 5631 5630 5628 5627 5625 5623 5621 5619
5616 5617 5618 5619 5621 5622 5623 5625 5626 5627 5627 5628 5628 5628 5628 5628 5629 5629 5630 5631 5632 5633 5634 5635 5635 5636 5637 5637 5638 5638 5639 5639 5640 5640 5639 5639 5639 5638 5638 5638 5637 5637 5636 5635 5635 5634 5633 5632 5632 5631 5630 5629 5628 5627 5625 5624 5622 5621 5619 5618 5616 5614 5612